Location: Chimay
(50.0486°N, 4.3171°E)
Time: 10:28:16
(UTC+00:00)

Cosmos 1140 Rocket - Pass Details

Date: 08 August 2020
Orbit: 745 x 767 km, 74.1° (Epoch: 20 September)

Event Time Altitude Azimuth Distance (km) Brightness Sun altitude
Rises 20:43:40 0° 195° (SSW) 3,220 6.4 -12.7°
Reaches altitude 10° 20:46:01 10° 193° (SSW) 2,299 5.7 -12.9°
Maximum altitude 20:51:13 72° 110° (ESE) 810 3.4 -13.5°
Drops below altitude 10° 20:56:28 10° 27° (NNE) 2,317 6.2 -14.1°
Sets 20:58:51 0° 26° (NNE) 3,246 7.1 -14.3°
